Find Starlink 32886

NORAD ID: 62807 Int'l Des: 2025-018 Owner: SPXS Country: US Constellation: starlink operational
LEOCIRCULAR

当前视图

正在加载3D地球...

About Starlink 32886

Starlink 32886 (NORAD 62807) is a starlink constellation satellite (v2 mini) launched Jan 24, 2025 by SPXS of US. It operates in LEO, CIRCULAR orbit with a mass of 730.00 kg.

即将过境

Passes for default location (London). Set your location on the main map for personalized predictions.

高度历史

Loading altitude history...

两行轨道根数

1 62807U 25018B 26264.03700545 .00024552 00000-0 73529-3 0 9990
2 62807 53.1564 118.9201 0000787 105.7784 254.3306 15.34405297 93134
Epoch: Sep 21, 2026 • Age: 10 hours

当前状态

高度 462.5 km
远地点 / 近地点 N/A
速度 7.64 km/s
星下点 10.23°N, 123.99°E
发射日期 Jan 24, 2025
运行时间 1.6 years
类型 internet

技术详情

分类 Payload
质量 730.00 kg
干质量 700.00 kg
长度 0.30 m
跨度 29.00 m
形状 ? Box + pan
制造商 SPXS
平台类型 Starlink V2M
阶段状态 In Orbit
所有者/国家 SPXS/US

Most Searched